• In Hungary
  • List of Countries
  • For 7 days
  • Water Temperature
  • Satellite Maps
  • Weather Map
  • News
  • Weather Widgets
  • user-avatar
    Login

    Hourly Weather Staiky

    Today, 20 June, Wednesday

    Time Temperature Precipitation Wind Pressure Humidity
    00:00 +22°C° 0.3 mm 1 mps 753 mmHg 86%
    01:00 +20°C° 0.3 mm 2 mps 753 mmHg 88%
    02:00 +20°C° 0 mm 2 mps 753 mmHg 89%
    03:00 +21°C° 0.4 mm 2 mps 753 mmHg 90%
    04:00 +21°C° 0.4 mm 2 mps 753 mmHg 91%
    05:00 +21°C° 0.4 mm 3 mps 753 mmHg 91%
    06:00 +22°C° 0.1 mm 3 mps 753 mmHg 86%
    07:00 +25°C° 0.1 mm 3 mps 754 mmHg 81%
    08:00 +27°C° 0 mm 3 mps 754 mmHg 74%
    09:00 +27°C° 0.2 mm 4 mps 754 mmHg 69%
    10:00 +28°C° 0.2 mm 4 mps 754 mmHg 64%
    11:00 +29°C° 0.2 mm 5 mps 754 mmHg 59%
    12:00 +29°C° 0 mm 5 mps 754 mmHg 59%
    13:00 +29°C° 0 mm 5 mps 754 mmHg 58%
    14:00 +29°C° 0 mm 5 mps 754 mmHg 57%
    15:00 +28°C° 0 mm 5 mps 754 mmHg 59%
    16:00 +28°C° 0 mm 5 mps 754 mmHg 61%
    17:00 +27°C° 0 mm 4 mps 754 mmHg 63%
    18:00 +26°C° 0 mm 3 mps 754 mmHg 68%
    19:00 +24°C° 0 mm 3 mps 754 mmHg 73%
    20:00 +21°C° 0 mm 2 mps 755 mmHg 77%
    21:00 +20°C° 0 mm 2 mps 755 mmHg 78%
    22:00 +20°C° 0 mm 2 mps 755 mmHg 79%
    23:00 +20°C° 0 mm 1 mps 755 mmHg 80%

    Tomorrow, 21 June, Thursday

    Time Temperature Precipitation Wind Pressure Humidity
    00:00 +19°C° 0 mm 1 mps 755 mmHg 80%
    01:00 +19°C° 0 mm 1 mps 755 mmHg 80%
    02:00 +19°C° 0 mm 1 mps 755 mmHg 80%
    03:00 +19°C° 0 mm 1 mps 755 mmHg 81%
    04:00 +19°C° 0 mm 1 mps 755 mmHg 81%
    05:00 +19°C° 0 mm 1 mps 755 mmHg 81%
    06:00 +21°C° 0 mm 1 mps 755 mmHg 76%
    07:00 +23°C° 0 mm 1 mps 755 mmHg 70%
    08:00 +24°C° 0 mm 1 mps 755 mmHg 64%
    09:00 +25°C° 0 mm 1 mps 755 mmHg 60%
    10:00 +26°C° 0 mm 2 mps 755 mmHg 56%
    11:00 +27°C° 0 mm 2 mps 755 mmHg 52%
    12:00 +28°C° 0 mm 2 mps 754 mmHg 51%
    13:00 +28°C° 0 mm 1 mps 754 mmHg 50%
    14:00 +29°C° 0 mm 1 mps 753 mmHg 48%
    15:00 +29°C° 0 mm 1 mps 753 mmHg 49%
    16:00 +29°C° 0 mm 1 mps 753 mmHg 50%
    17:00 +27°C° 0 mm 0 mps 752 mmHg 50%
    18:00 +27°C° 0 mm 1 mps 752 mmHg 55%
    19:00 +25°C° 0 mm 1 mps 752 mmHg 60%
    20:00 +23°C° 0 mm 1 mps 752 mmHg 66%
    21:00 +23°C° 0 mm 1 mps 752 mmHg 67%
    22:00 +21°C° 0 mm 2 mps 752 mmHg 69%
    23:00 +21°C° 0 mm 2 mps 751 mmHg 71%

    Day after tomorrow, 22 June, Friday

    Time Temperature Precipitation Wind Pressure Humidity
    00:00 +20°C° 0 mm 2 mps 751 mmHg 72%
    01:00 +20°C° 0 mm 2 mps 751 mmHg 74%
    02:00 +19°C° 0 mm 3 mps 751 mmHg 76%
    03:00 +19°C° 0 mm 3 mps 751 mmHg 77%
    04:00 +19°C° 0 mm 3 mps 750 mmHg 78%
    05:00 +19°C° 0 mm 3 mps 750 mmHg 80%
    06:00 +21°C° 0 mm 3 mps 750 mmHg 75%
    07:00 +23°C° 0 mm 4 mps 750 mmHg 70%
    08:00 +26°C° 0 mm 4 mps 750 mmHg 65%
    09:00 +27°C° 0 mm 4 mps 749 mmHg 61%
    10:00 +28°C° 0 mm 4 mps 749 mmHg 57%
    11:00 +29°C° 0 mm 4 mps 749 mmHg 53%
    12:00 +30°C° 0 mm 4 mps 748 mmHg 51%
    13:00 +30°C° 0 mm 4 mps 748 mmHg 50%
    14:00 +32°C° 0 mm 4 mps 748 mmHg 48%
    15:00 +31°C° 0 mm 3 mps 747 mmHg 51%
    16:00 +30°C° 0 mm 3 mps 747 mmHg 54%
    17:00 +30°C° 0 mm 2 mps 747 mmHg 56%
    18:00 +29°C° 0.1 mm 2 mps 747 mmHg 60%
    19:00 +27°C° 0.1 mm 2 mps 747 mmHg 64%
    20:00 +25°C° 0.1 mm 2 mps 747 mmHg 68%
    21:00 +24°C° 0.7 mm 2 mps 747 mmHg 73%
    22:00 +22°C° 0.7 mm 3 mps 747 mmHg 78%
    23:00 +21°C° 0.7 mm 3 mps 747 mmHg 83%

    23 June, Saturday

    Time Temperature Precipitation Wind Pressure Humidity
    00:00 +20°C° 1.1 mm 3 mps 747 mmHg 86%
    01:00 +19°C° 1.1 mm 3 mps 747 mmHg 90%
    02:00 +19°C° 1.1 mm 3 mps 747 mmHg 93%
    03:00 +18°C° 0.8 mm 3 mps 747 mmHg 94%
    04:00 +18°C° 0.8 mm 3 mps 747 mmHg 94%
    05:00 +18°C° 0.8 mm 3 mps 747 mmHg 94%
    06:00 +18°C° 0.7 mm 4 mps 747 mmHg 94%
    07:00 +17°C° 0.7 mm 4 mps 747 mmHg 94%
    08:00 +16°C° 0.7 mm 5 mps 747 mmHg 93%
    09:00 +15°C° 0.6 mm 5 mps 747 mmHg 92%
    10:00 +14°C° 0.6 mm 6 mps 748 mmHg 92%
    11:00 +14°C° 0.6 mm 7 mps 748 mmHg 91%
    12:00 +12°C° 0.2 mm 7 mps 748 mmHg 90%
    13:00 +12°C° 0.2 mm 7 mps 749 mmHg 89%
    14:00 +12°C° 0.2 mm 7 mps 749 mmHg 88%
    15:00 +12°C° 0.1 mm 7 mps 749 mmHg 87%
    16:00 +11°C° 0.1 mm 6 mps 750 mmHg 87%
    17:00 +11°C° 0.1 mm 6 mps 750 mmHg 86%
    18:00 +12°C° 0 mm 5 mps 750 mmHg 87%
    19:00 +11°C° 0 mm 4 mps 750 mmHg 88%
    20:00 +11°C° 0 mm 3 mps 751 mmHg 89%
    21:00 +11°C° 0 mm 3 mps 751 mmHg 91%
    22:00 +10°C° 0 mm 3 mps 751 mmHg 92%
    23:00 +10°C° 0 mm 2 mps 752 mmHg 93%

    24 June, Sunday

    Time Temperature Precipitation Wind Pressure Humidity
    00:00 +10°C° 0 mm 2 mps 752 mmHg 93%
    01:00 +10°C° 0 mm 2 mps 752 mmHg 93%
    02:00 +10°C° 0 mm 2 mps 752 mmHg 93%
    03:00 +10°C° 0 mm 2 mps 753 mmHg 92%
    04:00 +10°C° 0 mm 2 mps 753 mmHg 92%
    05:00 +12°C° 0 mm 2 mps 753 mmHg 91%
    06:00 +14°C° 0 mm 2 mps 753 mmHg 84%
    07:00 +16°C° 0 mm 3 mps 754 mmHg 78%
    08:00 +18°C° 0 mm 3 mps 754 mmHg 72%
    09:00 +19°C° 0 mm 3 mps 754 mmHg 66%
    10:00 +20°C° 0 mm 3 mps 754 mmHg 61%
    11:00 +22°C° 0 mm 4 mps 754 mmHg 55%
    12:00 +22°C° 0 mm 4 mps 754 mmHg 55%
    13:00 +22°C° 0 mm 4 mps 754 mmHg 54%
    14:00 +22°C° 0 mm 4 mps 754 mmHg 54%
    15:00 +22°C° 0 mm 4 mps 754 mmHg 55%
    16:00 +22°C° 0 mm 4 mps 754 mmHg 56%
    17:00 +21°C° 0 mm 4 mps 754 mmHg 58%
    18:00 +20°C° 0 mm 3 mps 755 mmHg 64%
    19:00 +18°C° 0 mm 3 mps 755 mmHg 70%
    20:00 +16°C° 0 mm 2 mps 755 mmHg 75%
    21:00 +16°C° 0 mm 2 mps 755 mmHg 78%
    22:00 +15°C° 0 mm 2 mps 755 mmHg 81%
    23:00 +14°C° 0 mm 2 mps 756 mmHg 83%

    25 June, Monday

    Time Temperature Precipitation Wind Pressure Humidity
    00:00 +14°C° 0 mm 2 mps 756 mmHg 85%
    01:00 +13°C° 0 mm 2 mps 756 mmHg 87%
    02:00 +13°C° 0 mm 2 mps 756 mmHg 89%
    03:00 +13°C° 0 mm 2 mps 756 mmHg 89%
    04:00 +13°C° 0 mm 2 mps 756 mmHg 88%
    05:00 +14°C° 0 mm 1 mps 756 mmHg 88%
    06:00 +15°C° 0 mm 1 mps 756 mmHg 82%
    07:00 +17°C° 0 mm 2 mps 757 mmHg 75%
    08:00 +19°C° 0 mm 2 mps 757 mmHg 68%
    09:00 +20°C° 0 mm 2 mps 757 mmHg 63%
    10:00 +21°C° 0 mm 2 mps 757 mmHg 59%
    11:00 +23°C° 0 mm 2 mps 757 mmHg 54%
    12:00 +24°C° 0 mm 2 mps 756 mmHg 53%
    13:00 +24°C° 0 mm 2 mps 756 mmHg 52%
    14:00 +24°C° 0 mm 2 mps 756 mmHg 51%
    15:00 +24°C° 0 mm 2 mps 756 mmHg 52%
    16:00 +24°C° 0 mm 2 mps 756 mmHg 53%
    17:00 +24°C° 0 mm 2 mps 756 mmHg 54%
    18:00 +21°C° 0 mm 2 mps 756 mmHg 59%
    19:00 +21°C° 0 mm 1 mps 756 mmHg 64%
    20:00 +19°C° 0 mm 1 mps 756 mmHg 69%
    21:00 +18°C° 0 mm 1 mps 756 mmHg 72%
    22:00 +18°C° 0 mm 1 mps 756 mmHg 74%
    23:00 +16°C° 0 mm 1 mps 756 mmHg 77%
    Show more